Погода в Лихославле

Россия / Тверская область     57°07′19″N   35°28′00″E
темп.,
°C
ветер,
м/с
пор.,
м/с
влажн.,
%
обл.,
%
осадки,
мм/ч
давл.,
гПа
погр.,
м
18 мая, ср
ср1800:00+5ссз51195100 0.0 1011324
03:00+3ссз4109562 0.0 1012283
06:00+4ссз410905 0.0 1014327
09:00+9ссз586450 0.0 1015747
12:00+11ссз6856100 0.0 10151408
15:00+11сз6949100 0.0 10151752
18:00+11сз4956100 0.0 10161823
21:00+8з386771 0.0 1016344
19 мая, чт
чт1900:00+5з41282100 0.0 1015329
03:00+5з4138580 0.0 1014364
06:00+6зсз41177100 0.1 1014443
09:00+9сз697158 0.1 10151017
12:00+12ссз61038100 0.0 10152178
15:00+13ссз693372 0.0 10152455
18:00+12ссз57415 0.0 10152093
21:00+6ссз356462 0.0 101785
20 мая, пт
пт2000:00+4ссв411755 0.0 1019332
03:00+1с37835 0.0 1021156
06:00+2ссв25724 0.0 1022174
09:00+7ссв22495 0.0 1022993
12:00+11с113725 0.0 10201621
15:00+12ссв1135100 0.0 10181892
18:00+11всв1238100 0.0 10171699
21:00+7в1154100 0.0 101610
21 мая, сб
сб2100:00+4в2367100 0.0 101651
03:00+2всв35815 0.0 101689
06:00+3всв25735 0.0 1015162
09:00+9св34485 0.0 10151032
12:00+12ссв343818 0.0 10142015
15:00+13ссв343485 0.0 10122356
18:00+13ссв343994 0.0 10122076
21:00+7св376398 0.0 1012123
22 мая, вс
вс2200:00+3в23755 0.0 101360
03:00+1св22750 0.0 101432
06:00+3св25670 0.0 1014150
09:00+8ссв34440 0.0 10131223
12:00+11ссв34375 0.0 10121921
15:00+13ссв34325 0.0 10112289
18:00+12с353659 0.0 10112309
21:00+6с22607 0.0 101216